| time (UTC) | temp F | wind direction | speed MPH | gust MPH | rain 1hr in | rain 24hr in | rain mn in | humidity % | barometer mb |
| 20260903123010 | 60 | 185 | 1.0 | 5.0 | 0.00 | 0.04 | 0.00 | 78 | 1016.8 |
| 20260903122506 | 60 | 185 | 2.0 | 5.0 | 0.00 | 0.04 | 0.00 | 77 | 1016.8 |
| 20260903122007 | 60 | 184 | 2.0 | 6.0 | 0.00 | 0.04 | 0.00 | 76 | 1016.7 |
| 20260903121516 | 60 | 185 | 1.0 | 6.0 | 0.00 | 0.04 | 0.00 | 76 | 1016.7 |
| 20260903121010 | 60 | 192 | 3.0 | 5.0 | 0.00 | 0.04 | 0.00 | 76 | 1016.6 |
| 20260903120509 | 60 | 194 | 2.0 | 5.0 | 0.00 | 0.04 | 0.00 | 76 | 1016.6 |
| 20260903120012 | 60 | 198 | 2.0 | 4.0 | 0.00 | 0.04 | 0.00 | 76 | 1016.6 |
| 20260903115508 | 60 | 199 | 2.0 | 4.0 | 0.00 | 0.04 | 0.00 | 76 | 1016.6 |
| 20260903115008 | 60 | 199 | 2.0 | 4.0 | 0.00 | 0.04 | 0.00 | 75 | 1016.6 |
| 20260903114509 | 60 | 199 | 2.0 | 4.0 | 0.00 | 0.04 | 0.00 | 75 | 1016.5 |
| 20260903114013 | 60 | 199 | 2.0 | 4.0 | 0.00 | 0.04 | 0.00 | 76 | 1016.5 |
| 20260903113507 | 60 | 199 | 1.0 | 4.0 | 0.00 | 0.04 | 0.00 | 76 | 1016.5 |
| 20260903113013 | 61 | 199 | 2.0 | 5.0 | 0.00 | 0.04 | 0.00 | 75 | 1016.5 |
| 20260903112515 | 61 | 201 | 2.0 | 6.0 | 0.00 | 0.04 | 0.00 | 75 | 1016.4 |
| 20260903112012 | 61 | 201 | 3.0 | 6.0 | 0.00 | 0.04 | 0.00 | 76 | 1016.5 |
| 20260903111511 | 61 | 203 | 1.0 | 5.0 | 0.00 | 0.04 | 0.00 | 76 | 1016.5 |
| 20260903111014 | 61 | 203 | 2.0 | 5.0 | 0.00 | 0.04 | 0.00 | 76 | 1016.4 |
| 20260903110511 | 61 | 205 | 2.0 | 5.0 | 0.00 | 0.04 | 0.00 | 76 | 1016.4 |
| 20260903110016 | 61 | 205 | 3.0 | 5.0 | 0.00 | 0.04 | 0.00 | 76 | 1016.3 |
| 20260903105518 | 61 | 206 | 3.0 | 5.0 | 0.00 | 0.04 | 0.00 | 76 | 1016.2 |
| 20260903105015 | 61 | 207 | 3.0 | 5.0 | 0.00 | 0.04 | 0.00 | 77 | 1016.2 |
| 20260903104514 | 61 | 210 | 2.0 | 4.0 | 0.00 | 0.04 | 0.00 | 77 | 1016.2 |
| 20260903104014 | 61 | 210 | 1.0 | 2.0 | 0.00 | 0.04 | 0.00 | 77 | 1016.2 |
| 20260903103518 | 61 | 210 | 0.0 | 3.0 | 0.00 | 0.04 | 0.00 | 77 | 1016.3 |
| 20260903103014 | 61 | 210 | 1.0 | 4.0 | 0.00 | 0.04 | 0.00 | 78 | 1016.3 |
| 20260903102515 | 61 | 210 | 2.0 | 4.0 | 0.00 | 0.04 | 0.00 | 78 | 1016.4 |
| 20260903102017 | 61 | 210 | 1.0 | 3.0 | 0.00 | 0.04 | 0.00 | 78 | 1016.5 |
| 20260903101518 | 61 | 210 | 2.0 | 3.0 | 0.00 | 0.04 | 0.00 | 78 | 1016.5 |
| 20260903101017 | 61 | 210 | 0.0 | 2.0 | 0.00 | 0.04 | 0.00 | 77 | 1016.5 |
| 20260903100517 | 61 | 211 | 0.0 | 2.0 | 0.00 | 0.04 | 0.00 | 77 | 1016.5 |
| 20260903100034 | 62 | 211 | 0.0 | 2.0 | 0.00 | 0.04 | 0.00 | 77 | 1016.5 |
| 20260903095516 | 62 | 211 | 0.0 | 2.0 | 0.00 | 0.04 | 0.00 | 77 | 1016.6 |
| 20260903095016 | 62 | 211 | 0.0 | 3.0 | 0.00 | 0.04 | 0.00 | 77 | 1016.5 |
| 20260903094520 | 62 | 211 | 0.0 | 6.0 | 0.00 | 0.04 | 0.00 | 76 | 1016.6 |
| 20260903094023 | 62 | 211 | 1.0 | 6.0 | 0.00 | 0.04 | 0.00 | 76 | 1016.5 |
| 20260903093521 | 62 | 212 | 4.0 | 7.0 | 0.00 | 0.04 | 0.00 | 78 | 1016.6 |
| 20260903093026 | 62 | 212 | 4.0 | 7.0 | 0.00 | 0.04 | 0.00 | 79 | 1016.5 |
| 20260903092519 | 61 | 220 | 4.0 | 6.0 | 0.00 | 0.04 | 0.00 | 79 | 1016.6 |
| 20260903092018 | 61 | 231 | 0.0 | 2.0 | 0.00 | 0.04 | 0.00 | 79 | 1016.7 |
| 20260903091519 | 61 | 231 | 0.0 | 2.0 | 0.00 | 0.04 | 0.00 | 79 | 1016.6 |
| 20260903091017 | 62 | 231 | 1.0 | 3.0 | 0.00 | 0.04 | 0.00 | 79 | 1016.6 |
| 20260903090517 | 62 | 231 | 0.0 | 4.0 | 0.00 | 0.04 | 0.00 | 79 | 1016.6 |
| 20260903090021 | 62 | 231 | 1.0 | 4.0 | 0.00 | 0.04 | 0.00 | 79 | 1016.6 |
| 20260903085520 | 62 | 231 | 2.0 | 4.0 | 0.00 | 0.04 | 0.00 | 78 | 1016.6 |
| 20260903085020 | 62 | 231 | 2.0 | 4.0 | 0.00 | 0.04 | 0.00 | 77 | 1016.5 |
| 20260903084521 | 62 | 231 | 1.0 | 2.0 | 0.00 | 0.04 | 0.00 | 79 | 1016.5 |
| 20260903084021 | 62 | 231 | 0.0 | 1.0 | 0.00 | 0.04 | 0.00 | 78 | 1016.5 |
| 20260903083521 | 62 | 231 | 0.0 | 1.0 | 0.00 | 0.04 | 0.00 | 78 | 1016.6 |
| 20260903083019 | 62 | 231 | 0.0 | 4.0 | 0.00 | 0.04 | 0.00 | 78 | 1016.5 |
| 20260903082518 | 62 | 231 | 0.0 | 4.0 | 0.00 | 0.04 | 0.00 | 78 | 1016.4 |
| 20260903082018 | 62 | 231 | 1.0 | 2.0 | 0.00 | 0.04 | 0.00 | 77 | 1016.5 |
| 20260903081525 | 63 | 231 | 0.0 | 2.0 | 0.00 | 0.04 | 0.00 | 76 | 1016.5 |
| 20260903081022 | 63 | 231 | 0.0 | 2.0 | 0.00 | 0.04 | 0.00 | 75 | 1016.6 |
| 20260903080522 | 63 | 231 | 0.0 | 2.0 | 0.00 | 0.04 | 0.00 | 75 | 1016.5 |
| 20260903080021 | 64 | 231 | 0.0 | 2.0 | 0.00 | 0.04 | 0.00 | 75 | 1016.5 |
| 20260903075524 | 64 | 232 | 0.0 | 2.0 | 0.00 | 0.04 | 0.00 | 74 | 1016.5 |
| 20260903075021 | 64 | 232 | 0.0 | 2.0 | 0.00 | 0.04 | 0.00 | 74 | 1016.5 |
| 20260903074522 | 64 | 233 | 0.0 | 2.0 | 0.00 | 0.04 | 0.00 | 75 | 1016.5 |
| 20260903074022 | 64 | 233 | 0.0 | 0.0 | 0.00 | 0.04 | 0.00 | 76 | 1016.7 |
| 20260903073522 | 64 | 233 | 0.0 | 1.0 | 0.00 | 0.04 | 0.00 | 75 | 1016.7 |
| 20260903073024 | 64 | 233 | 0.0 | 2.0 | 0.00 | 0.04 | 0.00 | 75 | 1016.8 |
| 20260903072520 | 64 | 233 | 0.0 | 3.0 | 0.00 | 0.04 | 0.00 | 76 | 1016.9 |
| 20260903072020 | 64 | 233 | 1.0 | 3.0 | 0.00 | 0.04 | 0.00 | 76 | 1016.9 |
| 20260903071519 | 64 | 233 | 1.0 | 3.0 | 0.00 | 0.04 | 0.00 | 77 | 1017.0 |
| 20260903071018 | 63 | 233 | 2.0 | 5.0 | 0.00 | 0.04 | 0.00 | 78 | 1016.9 |
| 20260903070518 | 63 | 233 | 2.0 | 5.0 | 0.00 | 0.04 | 0.00 | 80 | 1016.9 |
| 20260903070022 | 63 | 232 | 4.0 | 5.0 | 0.00 | 0.04 | 0.00 | 80 | 1016.9 |
| 20260903065522 | 63 | 230 | 0.0 | 0.0 | 0.00 | 0.04 | 0.00 | 79 | 1016.9 |
| 20260903065021 | 63 | 230 | 0.0 | 0.0 | 0.00 | 0.04 | 0.00 | 79 | 1016.8 |
| 20260903064522 | 63 | 230 | 0.0 | 0.0 | 0.00 | 0.04 | 0.00 | 79 | 1016.8 |
| 20260903064021 | 63 | 230 | 0.0 | 2.0 | 0.00 | 0.04 | 0.00 | 79 | 1016.9 |
| 20260903063521 | 63 | 230 | 0.0 | 3.0 | 0.00 | 0.04 | 0.00 | 79 | 1016.9 |
| 20260903063024 | 63 | 230 | 0.0 | 4.0 | 0.00 | 0.04 | 0.00 | 79 | 1017.0 |
| 20260903062523 | 63 | 230 | 1.0 | 4.0 | 0.00 | 0.04 | 0.00 | 78 | 1017.0 |
| 20260903062025 | 63 | 230 | 1.0 | 4.0 | 0.00 | 0.04 | 0.00 | 78 | 1016.9 |
| 20260903061524 | 63 | 230 | 2.0 | 3.0 | 0.00 | 0.04 | 0.00 | 78 | 1017.0 |
| 20260903061023 | 64 | 230 | 0.0 | 3.0 | 0.00 | 0.04 | 0.00 | 77 | 1017.0 |
| 20260903060521 | 64 | 230 | 1.0 | 3.0 | 0.00 | 0.04 | 0.00 | 77 | 1017.1 |
| 20260903060020 | 64 | 230 | 1.0 | 3.0 | 0.00 | 0.04 | 0.00 | 76 | 1017.1 |
| 20260903055521 | 64 | 230 | 0.0 | 1.0 | 0.00 | 0.04 | 0.04 | 76 | 1017.0 |
| 20260903055020 | 64 | 230 | 0.0 | 1.0 | 0.00 | 0.04 | 0.04 | 76 | 1016.9 |
| 20260903054524 | 64 | 230 | 0.0 | 3.0 | 0.00 | 0.04 | 0.04 | 76 | 1016.9 |
| 20260903054022 | 65 | 230 | 0.0 | 3.0 | 0.00 | 0.04 | 0.04 | 76 | 1017.0 |
| 20260903053525 | 65 | 231 | 0.0 | 2.0 | 0.00 | 0.04 | 0.04 | 75 | 1016.8 |
| 20260903053022 | 65 | 231 | 0.0 | 2.0 | 0.00 | 0.04 | 0.04 | 73 | 1016.7 |
| 20260903052526 | 65 | 231 | 0.0 | 2.0 | 0.00 | 0.04 | 0.04 | 73 | 1016.6 |
| 20260903052022 | 65 | 231 | 0.0 | 2.0 | 0.00 | 0.04 | 0.04 | 73 | 1016.6 |
| 20260903051524 | 65 | 231 | 0.0 | 3.0 | 0.00 | 0.04 | 0.04 | 74 | 1016.6 |
| 20260903051021 | 64 | 231 | 0.0 | 4.0 | 0.00 | 0.04 | 0.04 | 74 | 1016.6 |
| 20260903050521 | 64 | 231 | 1.0 | 5.0 | 0.00 | 0.04 | 0.04 | 76 | 1016.8 |
| 20260903050023 | 64 | 231 | 3.0 | 5.0 | 0.00 | 0.04 | 0.04 | 77 | 1017.0 |
| 20260903045523 | 64 | 187 | 0.0 | 2.0 | 0.00 | 0.04 | 0.04 | 78 | 1016.9 |
| 20260903045024 | 64 | 187 | 0.0 | 3.0 | 0.00 | 0.04 | 0.04 | 78 | 1016.9 |
| 20260903044521 | 64 | 187 | 0.0 | 3.0 | 0.00 | 0.04 | 0.04 | 77 | 1017.0 |
| 20260903044026 | 64 | 187 | 1.0 | 3.0 | 0.00 | 0.04 | 0.04 | 78 | 1017.0 |
| 20260903043520 | 64 | 187 | 0.0 | 2.0 | 0.00 | 0.04 | 0.04 | 77 | 1017.0 |
| 20260903043028 | 64 | 187 | 0.0 | 1.0 | 0.00 | 0.04 | 0.04 | 77 | 1017.2 |
| 20260903042525 | 64 | 187 | 0.0 | 1.0 | 0.01 | 0.04 | 0.04 | 77 | 1017.1 |
| 20260903042025 | 64 | 187 | 0.0 | 2.0 | 0.01 | 0.04 | 0.04 | 78 | 1017.0 |
| 20260903041524 | 64 | 187 | 0.0 | 2.0 | 0.02 | 0.04 | 0.04 | 78 | 1017.0 |
| 20260903041023 | 64 | 187 | 1.0 | 2.0 | 0.02 | 0.04 | 0.04 | 79 | 1016.9 |
| 20260903040524 | 64 | 187 | 0.0 | 2.0 | 0.04 | 0.04 | 0.04 | 79 | 1016.8 |
| 20260903040002 | 64 | 187 | 0.0 | 2.0 | 0.04 | 0.04 | 0.04 | 80 | 1016.8 |
| 20260903035501 | 64 | 187 | 0.0 | 2.0 | 0.04 | 0.04 | 0.04 | 79 | 1016.9 |
| 20260903035001 | 64 | 187 | 0.0 | 2.0 | 0.04 | 0.04 | 0.04 | 78 | 1017.0 |
| 20260903034526 | 65 | 187 | 0.0 | 3.0 | 0.04 | 0.04 | 0.04 | 78 | 1017.0 |
| 20260903034027 | 65 | 187 | 0.0 | 4.0 | 0.04 | 0.04 | 0.04 | 77 | 1017.3 |
| 20260903033524 | 65 | 187 | 0.0 | 4.0 | 0.04 | 0.04 | 0.04 | 76 | 1017.5 |
| 20260903033028 | 66 | 139 | 1.0 | 7.0 | 0.04 | 0.04 | 0.04 | 73 | 1017.9 |
| 20260903032529 | 67 | 108 | 2.0 | 7.0 | 0.03 | 0.03 | 0.03 | 71 | 1017.9 |
| 20260903032021 | 68 | 56 | 3.0 | 9.0 | 0.02 | 0.02 | 0.02 | 65 | 1017.3 |
| 20260903031530 | 68 | 184 | 4.0 | 9.0 | 0.02 | 0.02 | 0.02 | 64 | 1018.2 |
| 20260903031029 | 69 | 265 | 3.0 | 7.0 | 0.01 | 0.01 | 0.01 | 60 | 1018.0 |
| 20260903030523 | 71 | 281 | 3.0 | 7.0 | 0.00 | 0.00 | 0.00 | 58 | 1017.5 |
| 20260903030023 | 71 | 3 | 0.0 | 3.0 | 0.00 | 0.00 | 0.00 | 51 | 1017.1 |
| 20260903025522 | 71 | 5 | 0.0 | 5.0 | 0.00 | 0.00 | 0.00 | 51 | 1016.9 |
| 20260903025021 | 71 | 5 | 1.0 | 5.0 | 0.00 | 0.00 | 0.00 | 51 | 1016.9 |
| 20260903024521 | 71 | 47 | 1.0 | 5.0 | 0.00 | 0.00 | 0.00 | 51 | 1016.6 |
| 20260903024019 | 71 | 51 | 2.0 | 7.0 | 0.00 | 0.00 | 0.00 | 50 | 1016.2 |
| 20260903023521 | 71 | 44 | 2.0 | 7.0 | 0.00 | 0.00 | 0.00 | 50 | 1016.0 |
| 20260903023019 | 71 | 9 | 2.0 | 8.0 | 0.00 | 0.00 | 0.00 | 50 | 1016.1 |
| 20260903022519 | 72 | 13 | 2.0 | 8.0 | 0.00 | 0.00 | 0.00 | 50 | 1016.0 |
| 20260903022025 | 72 | 41 | 2.0 | 7.0 | 0.00 | 0.00 | 0.00 | 49 | 1015.9 |
| 20260903021530 | 72 | 1 | 2.0 | 7.0 | 0.00 | 0.00 | 0.00 | 49 | 1016.0 |
| 20260903021021 | 72 | 2 | 2.0 | 7.0 | 0.00 | 0.00 | 0.00 | 48 | 1016.0 |
| 20260903020521 | 72 | 8 | 1.0 | 7.0 | 0.00 | 0.00 | 0.00 | 49 | 1016.0 |
| 20260903020026 | 72 | 7 | 2.0 | 8.0 | 0.00 | 0.00 | 0.00 | 49 | 1015.9 |
| 20260903015518 | 73 | 1 | 2.0 | 8.0 | 0.00 | 0.00 | 0.00 | 49 | 1015.9 |
| 20260903015018 | 73 | 18 | 2.0 | 6.0 | 0.00 | 0.00 | 0.00 | 48 | 1016.0 |
| 20260903014520 | 74 | 10 | 2.0 | 6.0 | 0.00 | 0.00 | 0.00 | 46 | 1016.0 |
| 20260903014025 | 74 | 8 | 1.0 | 8.0 | 0.00 | 0.00 | 0.00 | 45 | 1015.8 |
| 20260903013524 | 75 | 360 | 2.0 | 8.0 | 0.00 | 0.00 | 0.00 | 43 | 1015.8 |
| 20260903013020 | 75 | 359 | 2.0 | 6.0 | 0.00 | 0.00 | 0.00 | 41 | 1015.7 |
| 20260903012518 | 75 | 1 | 2.0 | 6.0 | 0.00 | 0.00 | 0.00 | 39 | 1015.6 |
| 20260903012019 | 76 | 1 | 1.0 | 5.0 | 0.00 | 0.00 | 0.00 | 38 | 1015.6 |
| 20260903011525 | 76 | 1 | 1.0 | 5.0 | 0.00 | 0.00 | 0.00 | 38 | 1015.6 |
| 20260903011022 | 77 | 1 | 1.0 | 7.0 | 0.00 | 0.00 | 0.00 | 38 | 1015.5 |
| 20260903010526 | 77 | 1 | 1.0 | 7.0 | 0.00 | 0.00 | 0.00 | 37 | 1015.5 |
| 20260903010027 | 77 | 1 | 3.0 | 7.0 | 0.00 | 0.00 | 0.00 | 37 | 1015.5 |
| 20260903005521 | 78 | 9 | 2.0 | 10.0 | 0.00 | 0.00 | 0.00 | 37 | 1015.5 |
| 20260903005020 | 79 | 1 | 3.0 | 12.0 | 0.00 | 0.00 | 0.00 | 36 | 1015.6 |
| 20260903004517 | 80 | 359 | 4.0 | 12.0 | 0.00 | 0.00 | 0.00 | 36 | 1015.4 |
| 20260903004018 | 81 | 360 | 3.0 | 9.0 | 0.00 | 0.00 | 0.00 | 35 | 1015.3 |
| 20260903003518 | 81 | 301 | 4.0 | 9.0 | 0.00 | 0.00 | 0.00 | 30 | 1015.3 |
| 20260903003020 | 82 | 359 | 3.0 | 11.0 | 0.00 | 0.00 | 0.00 | 30 | 1015.2 |
| 20260903002520 | 83 | 352 | 4.0 | 11.0 | 0.00 | 0.00 | 0.00 | 29 | 1015.1 |
| 20260903002020 | 84 | 316 | 5.0 | 11.0 | 0.00 | 0.00 | 0.00 | 28 | 1015.1 |
| 20260903001519 | 85 | 336 | 6.0 | 11.0 | 0.00 | 0.00 | 0.00 | 26 | 1015.1 |
| 20260903001019 | 86 | 327 | 3.0 | 6.0 | 0.00 | 0.00 | 0.00 | 28 | 1015.1 |
| 20260903000524 | 86 | 1 | 2.0 | 6.0 | 0.00 | 0.00 | 0.00 | 30 | 1015.1 |
| 20260903000037 | 86 | 1 | 3.0 | 6.0 | 0.00 | 0.00 | 0.00 | 29 | 1015.1 |
| 20260902235523 | 86 | 359 | 2.0 | 6.0 | 0.00 | 0.00 | 0.00 | 28 | 1015.1 |
| 20260902235026 | 85 | 360 | 3.0 | 6.0 | 0.00 | 0.00 | 0.00 | 29 | 1015.2 |
| 20260902234522 | 84 | 359 | 2.0 | 7.0 | 0.00 | 0.00 | 0.00 | 31 | 1015.1 |
| 20260902234023 | 83 | 359 | 3.0 | 22.0 | 0.00 | 0.00 | 0.00 | 33 | 1015.1 |
| 20260902233522 | 82 | 360 | 5.0 | 22.0 | 0.00 | 0.00 | 0.00 | 31 | 1015.2 |
| 20260902233032 | 83 | 302 | 10.0 | 17.0 | 0.00 | 0.00 | 0.00 | 32 | 1015.1 |
| 20260902232521 | 84 | 323 | 2.0 | 8.0 | 0.00 | 0.00 | 0.00 | 30 | 1015.2 |
| 20260902232021 | 85 | 295 | 4.0 | 7.0 | 0.00 | 0.00 | 0.00 | 30 | 1015.3 |
| 20260902231506 | 85 | 150 | 3.0 | 6.0 | 0.00 | 0.00 | 0.00 | 27 | 1015.3 |
| 20260902231006 | 85 | 103 | 3.0 | 11.0 | 0.00 | 0.00 | 0.00 | 27 | 1015.1 |
| 20260902230509 | 85 | 105 | 5.0 | 11.0 | 0.00 | 0.00 | 0.00 | 27 | 1014.9 |
| 20260902230025 | 85 | 146 | 3.0 | 5.0 | 0.00 | 0.00 | 0.00 | 27 | 1014.8 |
| 20260902225528 | 85 | 101 | 1.0 | 8.0 | 0.00 | 0.00 | 0.00 | 26 | 1014.8 |
| 20260902225026 | 85 | 102 | 3.0 | 11.0 | 0.00 | 0.00 | 0.00 | 26 | 1014.8 |
| 20260902224507 | 86 | 91 | 6.0 | 11.0 | 0.00 | 0.00 | 0.00 | 25 | 1014.7 |
| 20260902224010 | 87 | 95 | 3.0 | 8.0 | 0.00 | 0.00 | 0.00 | 24 | 1014.7 |
| 20260902223507 | 87 | 171 | 3.0 | 9.0 | 0.00 | 0.00 | 0.00 | 24 | 1014.7 |
| 20260902223019 | 87 | 99 | 5.0 | 9.0 | 0.00 | 0.00 | 0.00 | 25 | 1014.7 |
| 20260902222506 | 87 | 86 | 3.0 | 6.0 | 0.00 | 0.00 | 0.00 | 25 | 1014.6 |
| 20260902222006 | 88 | 77 | 3.0 | 12.0 | 0.00 | 0.00 | 0.00 | 24 | 1014.6 |
| 20260902221526 | 88 | 51 | 5.0 | 12.0 | 0.00 | 0.00 | 0.00 | 25 | 1014.8 |
| 20260902221026 | 88 | 73 | 6.0 | 11.0 | 0.00 | 0.00 | 0.00 | 26 | 1014.9 |
| 20260902220525 | 88 | 82 | 5.0 | 10.0 | 0.00 | 0.00 | 0.00 | 24 | 1015.0 |
| 20260902220022 | 87 | 43 | 5.0 | 11.0 | 0.00 | 0.00 | 0.00 | 25 | 1015.0 |
| 20260902215508 | 88 | 84 | 5.0 | 12.0 | 0.00 | 0.00 | 0.00 | 27 | 1015.1 |
| 20260902215008 | 88 | 31 | 6.0 | 12.0 | 0.00 | 0.00 | 0.00 | 26 | 1015.2 |
| 20260902214529 | 88 | 50 | 2.0 | 10.0 | 0.00 | 0.00 | 0.00 | 24 | 1015.1 |
| 20260902214006 | 87 | 63 | 6.0 | 15.0 | 0.00 | 0.00 | 0.00 | 25 | 1015.3 |
| 20260902213506 | 87 | 98 | 6.0 | 15.0 | 0.00 | 0.00 | 0.00 | 26 | 1015.4 |
| 20260902213007 | 88 | 95 | 5.0 | 9.0 | 0.00 | 0.00 | 0.00 | 26 | 1015.4 |
| 20260902212506 | 88 | 101 | 5.0 | 13.0 | 0.00 | 0.00 | 0.00 | 24 | 1015.4 |
| 20260902212006 | 88 | 91 | 8.0 | 13.0 | 0.00 | 0.00 | 0.00 | 27 | 1015.6 |
| 20260902211512 | 88 | 32 | 5.0 | 12.0 | 0.00 | 0.00 | 0.00 | 23 | 1015.6 |
| 20260902211011 | 88 | 61 | 3.0 | 8.0 | 0.00 | 0.00 | 0.00 | 23 | 1015.6 |
| 20260902210508 | 88 | 43 | 5.0 | 10.0 | 0.00 | 0.00 | 0.00 | 26 | 1015.8 |
| 20260902210013 | 88 | 20 | 3.0 | 10.0 | 0.00 | 0.00 | 0.00 | 23 | 1015.9 |
| 20260902205507 | 88 | 108 | 5.0 | 12.0 | 0.00 | 0.00 | 0.00 | 23 | 1016.0 |
| 20260902205007 | 87 | 85 | 5.0 | 13.0 | 0.00 | 0.00 | 0.00 | 24 | 1016.1 |
| 20260902204510 | 88 | 98 | 7.0 | 13.0 | 0.00 | 0.00 | 0.00 | 24 | 1016.1 |
| 20260902204008 | 88 | 85 | 6.0 | 12.0 | 0.00 | 0.00 | 0.00 | 23 | 1016.1 |
| 20260902203508 | 88 | 59 | 4.0 | 10.0 | 0.00 | 0.00 | 0.00 | 24 | 1016.4 |
| 20260902203007 | 88 | 63 | 3.0 | 8.0 | 0.00 | 0.00 | 0.00 | 24 | 1016.5 |
| 20260902202507 | 88 | 35 | 4.0 | 8.0 | 0.00 | 0.00 | 0.00 | 22 | 1016.6 |
| 20260902202006 | 87 | 70 | 3.0 | 10.0 | 0.00 | 0.00 | 0.00 | 24 | 1016.6 |
| 20260902201523 | 87 | 98 | 5.0 | 12.0 | 0.00 | 0.00 | 0.00 | 24 | 1016.6 |
| 20260902201008 | 87 | 79 | 4.0 | 12.0 | 0.00 | 0.00 | 0.00 | 23 | 1016.8 |
| 20260902200507 | 87 | 108 | 5.0 | 9.0 | 0.00 | 0.00 | 0.00 | 24 | 1016.8 |
| 20260902200009 | 87 | 89 | 3.0 | 11.0 | 0.00 | 0.00 | 0.00 | 23 | 1016.9 |
| 20260902195510 | 87 | 113 | 4.0 | 11.0 | 0.00 | 0.00 | 0.00 | 23 | 1017.0 |
| 20260902195007 | 88 | 96 | 4.0 | 10.0 | 0.00 | 0.00 | 0.00 | 23 | 1017.0 |
| 20260902194508 | 87 | 56 | 5.0 | 10.0 | 0.00 | 0.00 | 0.00 | 24 | 1017.1 |
| 20260902194007 | 86 | 105 | 2.0 | 11.0 | 0.00 | 0.00 | 0.00 | 23 | 1017.2 |
| 20260902193508 | 86 | 93 | 6.0 | 11.0 | 0.00 | 0.00 | 0.00 | 24 | 1017.3 |
| 20260902193012 | 87 | 41 | 4.0 | 9.0 | 0.00 | 0.00 | 0.00 | 26 | 1017.2 |
| 20260902192510 | 86 | 47 | 2.0 | 8.0 | 0.00 | 0.00 | 0.00 | 23 | 1017.2 |
| 20260902192009 | 86 | 75 | 3.0 | 9.0 | 0.00 | 0.00 | 0.00 | 25 | 1017.4 |
| 20260902191520 | 86 | 97 | 3.0 | 12.0 | 0.00 | 0.00 | 0.00 | 23 | 1017.5 |
| 20260902191012 | 86 | 101 | 4.0 | 12.0 | 0.00 | 0.00 | 0.00 | 27 | 1017.5 |
| 20260902190511 | 85 | 41 | 3.0 | 12.0 | 0.00 | 0.00 | 0.00 | 24 | 1017.7 |
| 20260902190012 | 86 | 13 | 5.0 | 12.0 | 0.00 | 0.00 | 0.00 | 23 | 1017.7 |
| 20260902185510 | 86 | 102 | 5.0 | 10.0 | 0.00 | 0.00 | 0.00 | 25 | 1017.8 |
| 20260902185010 | 86 | 97 | 5.0 | 10.0 | 0.00 | 0.00 | 0.00 | 25 | 1017.9 |
| 20260902184516 | 86 | 56 | 2.0 | 7.0 | 0.00 | 0.00 | 0.00 | 24 | 1017.9 |
| 20260902184015 | 86 | 97 | 1.0 | 7.0 | 0.00 | 0.00 | 0.00 | 26 | 1018.0 |
| 20260902183511 | 85 | 101 | 2.0 | 6.0 | 0.00 | 0.00 | 0.00 | 25 | 1018.1 |
| 20260902183015 | 84 | 101 | 2.0 | 9.0 | 0.00 | 0.00 | 0.00 | 24 | 1018.2 |
| 20260902182511 | 84 | 89 | 7.0 | 9.0 | 0.00 | 0.00 | 0.00 | 26 | 1018.4 |
| 20260902182011 | 86 | 26 | 4.0 | 8.0 | 0.00 | 0.00 | 0.00 | 24 | 1018.5 |
| 20260902181509 | 85 | 89 | 3.0 | 8.0 | 0.00 | 0.00 | 0.00 | 27 | 1018.5 |
| 20260902181008 | 84 | 31 | 6.0 | 8.0 | 0.00 | 0.00 | 0.00 | 24 | 1018.6 |
| 20260902180508 | 84 | 44 | 3.0 | 8.0 | 0.00 | 0.00 | 0.00 | 25 | 1018.7 |
| 20260902180013 | 84 | 85 | 4.0 | 8.0 | 0.00 | 0.00 | 0.00 | 29 | 1018.8 |
| 20260902175513 | 85 | 77 | 3.0 | 9.0 | 0.00 | 0.00 | 0.00 | 26 | 1018.9 |
| 20260902175015 | 84 | 106 | 4.0 | 11.0 | 0.00 | 0.00 | 0.00 | 27 | 1019.0 |
| 20260902174517 | 83 | 100 | 6.0 | 12.0 | 0.00 | 0.00 | 0.00 | 27 | 1019.1 |
| 20260902174013 | 83 | 104 | 6.0 | 12.0 | 0.00 | 0.00 | 0.00 | 26 | 1019.1 |
| 20260902173512 | 84 | 93 | 1.0 | 9.0 | 0.00 | 0.00 | 0.00 | 27 | 1019.1 |
| 20260902173022 | 83 | 94 | 4.0 | 9.0 | 0.00 | 0.00 | 0.00 | 29 | 1019.1 |
| 20260902172521 | 83 | 89 | 4.0 | 7.0 | 0.00 | 0.00 | 0.00 | 29 | 1019.2 |
| 20260902172019 | 83 | 46 | 3.0 | 7.0 | 0.00 | 0.00 | 0.00 | 27 | 1019.2 |
| 20260902171516 | 83 | 42 | 3.0 | 8.0 | 0.00 | 0.00 | 0.00 | 29 | 1019.3 |
| 20260902171018 | 83 | 95 | 4.0 | 8.0 | 0.00 | 0.00 | 0.00 | 30 | 1019.4 |
| 20260902170514 | 82 | 99 | 2.0 | 8.0 | 0.00 | 0.00 | 0.00 | 32 | 1019.4 |
| 20260902170012 | 81 | 103 | 2.0 | 8.0 | 0.00 | 0.00 | 0.00 | 30 | 1019.4 |
| 20260902165517 | 81 | 110 | 3.0 | 8.0 | 0.00 | 0.00 | 0.00 | 30 | 1019.5 |
| 20260902165012 | 81 | 101 | 4.0 | 8.0 | 0.00 | 0.00 | 0.00 | 32 | 1019.5 |
| 20260902164515 | 82 | 116 | 3.0 | 7.0 | 0.00 | 0.00 | 0.00 | 29 | 1019.5 |
| 20260902164014 | 81 | 115 | 2.0 | 8.0 | 0.00 | 0.00 | 0.00 | 31 | 1019.6 |
| 20260902163514 | 81 | 92 | 4.0 | 8.0 | 0.00 | 0.00 | 0.00 | 33 | 1019.5 |
| 20260902163014 | 81 | 148 | 2.0 | 6.0 | 0.00 | 0.00 | 0.00 | 31 | 1019.6 |
| 20260902162514 | 81 | 152 | 1.0 | 4.0 | 0.00 | 0.00 | 0.00 | 30 | 1019.6 |
| 20260902162013 | 81 | 162 | 1.0 | 4.0 | 0.00 | 0.00 | 0.00 | 34 | 1019.6 |
| 20260902161517 | 81 | 131 | 0.0 | 6.0 | 0.00 | 0.00 | 0.00 | 34 | 1019.6 |
| 20260902161019 | 80 | 127 | 2.0 | 6.0 | 0.00 | 0.00 | 0.00 | 33 | 1019.6 |
| 20260902160514 | 79 | 177 | 2.0 | 8.0 | 0.00 | 0.00 | 0.00 | 34 | 1019.6 |
| 20260902160016 | 78 | 152 | 4.0 | 10.0 | 0.00 | 0.00 | 0.00 | 36 | 1019.6 |
| 20260902155517 | 78 | 187 | 3.0 | 10.0 | 0.00 | 0.00 | 0.00 | 36 | 1019.7 |
| 20260902155012 | 78 | 137 | 3.0 | 7.0 | 0.00 | 0.00 | 0.00 | 38 | 1019.6 |
| 20260902154515 | 77 | 148 | 2.0 | 8.0 | 0.00 | 0.00 | 0.00 | 38 | 1019.6 |
| 20260902154015 | 76 | 158 | 3.0 | 9.0 | 0.00 | 0.00 | 0.00 | 39 | 1019.6 |
| 20260902153512 | 76 | 188 | 3.0 | 9.0 | 0.00 | 0.00 | 0.00 | 40 | 1019.6 |
| 20260902153030 | 76 | 164 | 2.0 | 7.0 | 0.00 | 0.00 | 0.00 | 40 | 1019.6 |
| 20260902152514 | 76 | 148 | 4.0 | 7.0 | 0.00 | 0.00 | 0.00 | 40 | 1019.6 |
| 20260902152011 | 75 | 155 | 2.0 | 7.0 | 0.00 | 0.00 | 0.00 | 42 | 1019.6 |
| 20260902151515 | 75 | 174 | 2.0 | 7.0 | 0.00 | 0.00 | 0.00 | 43 | 1019.5 |
| 20260902151014 | 74 | 154 | 3.0 | 7.0 | 0.00 | 0.00 | 0.00 | 43 | 1019.5 |
| 20260902150512 | 74 | 177 | 2.0 | 7.0 | 0.00 | 0.00 | 0.00 | 45 | 1019.5 |
| 20260902150013 | 73 | 136 | 2.0 | 9.0 | 0.00 | 0.00 | 0.00 | 46 | 1019.5 |
| 20260902145511 | 72 | 210 | 4.0 | 9.0 | 0.00 | 0.00 | 0.00 | 47 | 1019.5 |
| 20260902145009 | 71 | 191 | 5.0 | 9.0 | 0.00 | 0.00 | 0.00 | 47 | 1019.5 |
| 20260902144515 | 71 | 198 | 5.0 | 10.0 | 0.00 | 0.00 | 0.00 | 49 | 1019.6 |
| 20260902144012 | 70 | 187 | 5.0 | 10.0 | 0.00 | 0.00 | 0.00 | 50 | 1019.6 |
| 20260902143511 | 70 | 200 | 5.0 | 9.0 | 0.00 | 0.00 | 0.00 | 50 | 1019.7 |
| 20260902143015 | 69 | 198 | 5.0 | 10.0 | 0.00 | 0.00 | 0.00 | 50 | 1019.7 |
| 20260902142518 | 69 | 205 | 5.0 | 10.0 | 0.00 | 0.00 | 0.00 | 52 | 1019.7 |
| 20260902142014 | 69 | 187 | 4.0 | 9.0 | 0.00 | 0.00 | 0.00 | 52 | 1019.6 |
| 20260902141515 | 68 | 198 | 5.0 | 8.0 | 0.00 | 0.00 | 0.00 | 53 | 1019.6 |
| 20260902141014 | 67 | 201 | 3.0 | 8.0 | 0.00 | 0.00 | 0.00 | 54 | 1019.5 |
| 20260902140514 | 67 | 188 | 3.0 | 7.0 | 0.00 | 0.00 | 0.00 | 56 | 1019.5 |
| 20260902140013 | 66 | 205 | 2.0 | 7.0 | 0.00 | 0.00 | 0.00 | 57 | 1019.6 |
| 20260902135612 | 66 | 181 | 4.0 | 7.0 | 0.00 | 0.00 | 0.00 | 57 | 1019.5 |
| 20260902135012 | 66 | 191 | 2.0 | 5.0 | 0.00 | 0.00 | 0.00 | 59 | 1019.6 |
| 20260902134511 | 65 | 190 | 2.0 | 5.0 | 0.00 | 0.00 | 0.00 | 59 | 1019.6 |
| 20260902134010 | 64 | 190 | 2.0 | 6.0 | 0.00 | 0.00 | 0.00 | 60 | 1019.4 |
| 20260902133512 | 64 | 191 | 3.0 | 6.0 | 0.00 | 0.00 | 0.00 | 61 | 1019.5 |
| 20260902133013 | 63 | 200 | 4.0 | 6.0 | 0.00 | 0.00 | 0.00 | 63 | 1019.5 |
| 20260902132515 | 63 | 235 | 2.0 | 5.0 | 0.00 | 0.00 | 0.00 | 64 | 1019.4 |
| 20260902132011 | 62 | 238 | 1.0 | 4.0 | 0.00 | 0.00 | 0.00 | 63 | 1019.3 |
| 20260902131514 | 62 | 241 | 0.0 | 3.0 | 0.00 | 0.00 | 0.00 | 63 | 1019.3 |
| 20260902131018 | 61 | 242 | 1.0 | 3.0 | 0.00 | 0.00 | 0.00 | 64 | 1019.2 |
| 20260902130513 | 60 | 243 | 0.0 | 3.0 | 0.00 | 0.00 | 0.00 | 66 | 1019.2 |
| 20260902130015 | 59 | 244 | 0.0 | 3.0 | 0.00 | 0.00 | 0.00 | 67 | 1019.1 |
| 20260902125517 | 59 | 244 | 1.0 | 3.0 | 0.00 | 0.00 | 0.00 | 66 | 1019.1 |
| 20260902125014 | 59 | 244 | 0.0 | 1.0 | 0.00 | 0.00 | 0.00 | 67 | 1019.1 |
| 20260902124514 | 59 | 244 | 0.0 | 3.0 | 0.00 | 0.00 | 0.00 | 67 | 1019.0 |
| 20260902124012 | 59 | 244 | 1.0 | 3.0 | 0.00 | 0.00 | 0.00 | 67 | 1018.9 |
| 20260902123512 | 59 | 245 | 0.0 | 0.0 | 0.00 | 0.00 | 0.00 | 66 | 1018.9 |